Theta_e
322 322 322 323 323 323 323 322 322 322 322 322 323 323 323 323 323 321 310 316 319 329 324 316 315 314 315 313 313 312 302 300 301 300 302 307 304 308 310 307 309 310 309 313 313
321 321 322 322 322 323 322 322 322 322 322 322 322 322 322 322 317 312 322 325 333 327 315 313 311 312 311 310 311 307 303 302 306 305 303 305 305 306 306 306 307 309 313 314 314
321 321 322 322 322 323 323 323 322 322 322 322 322 322 322 322 311 308 325 330 333 325 316 315 313 311 307 310 309 307 302 305 306 307 307 305 304 307 304 303 307 306 309 312 312
321 322 322 322 322 323 323 323 323 323 322 322 322 321 322 318 300 311 329 334 331 318 314 312 310 307 305 304 308 303 306 306 307 307 305 304 306 304 305 306 310 310 311 311 310
322 322 322 322 322 322 323 323 324 323 322 322 322 321 318 306 306 323 330 331 317 314 311 310 308 307 303 304 305 303 304 306 307 307 306 306 304 304 304 308 310 310 310 310 310
322 322 321 321 322 322 322 323 323 322 321 321 322 320 311 301 313 324 325 322 315 313 311 311 308 309 305 304 303 305 304 304 305 304 304 302 303 304 305 309 308 308 308 309 310
322 321 321 321 322 322 322 322 321 320 321 321 322 318 307 307 315 322 321 316 315 314 310 312 311 307 307 303 306 303 299 302 303 304 302 303 299 300 306 308 306 306 307 308 309
321 320 320 320 321 321 322 322 318 320 320 320 321 315 305 308 316 315 314 311 314 313 311 311 311 308 305 306 302 299 300 295 302 301 302 301 295 303 306 305 304 305 306 307 308
321 320 320 320 320 320 321 317 319 320 320 320 316 311 304 310 306 309 311 307 310 309 309 308 309 305 304 299 297 299 293 296 298 303 300 299 296 302 305 304 302 304 305 306 307
321 321 321 321 320 320 319 314 320 317 318 317 311 303 303 303 306 307 309 309 306 307 304 304 303 300 300 297 291 295 296 297 296 301 300 298 298 301 304 303 303 305 306 306 307
322 322 322 321 321 321 317 315 314 310 309 306 308 304 308 306 308 305 307 305 306 304 298 302 297 295 299 301 299 298 296 295 298 301 299 297 297 299 303 304 304 305 306 306 305
322 323 323 322 321 319 316 312 306 305 304 314 311 308 305 306 302 303 306 302 301 297 300 297 294 300 302 298 297 296 294 294 298 301 296 296 296 299 302 302 305 303 304 303 303
322 322 322 321 321 319 313 308 311 309 302 308 306 304 304 305 303 304 304 303 299 298 297 296 300 301 298 297 295 295 294 294 294 297 298 297 295 300 303 305 305 303 303 302 299
322 321 321 321 316 320 314 310 311 309 299 302 301 301 301 302 299 301 304 302 300 298 300 298 300 296 296 294 296 292 298 296 294 292 290 296 287 295 300 301 300 300 300 299 298
320 321 321 317 322 317 311 311 311 307 288 301 297 305 302 298 298 297 302 301 297 297 297 295 295 293 294 295 297 294 295 294 294 292 292 293 291 294 299 297 299 298 298 298 298
317 319 318 319 322 315 313 310 309 297 287 299 297 297 296 297 296 298 299 301 299 296 297 296 296 296 297 297 296 295 294 294 294 293 287 293 291 292 294 295 295 296 296 296 296
313 318 315 318 315 315 313 313 298 290 301 297 295 295 295 294 295 296 296 295 295 292 293 297 297 297 295 293 295 293 291 287 286 287 286 294 289 292 298 299 297 295 294 295 296
310 317 316 317 311 309 312 304 288 294 296 301 299 299 297 299 297 296 296 295 299 295 293 291 289 296 296 295 294 294 294 288 281 283 287 292 286 292 296 296 296 295 294 294 293
311 317 315 320 315 312 308 291 291 296 299 298 298 295 295 298 296 297 297 295 298 299 291 291 290 299 295 296 295 292 289 293 286 287 284 288 292 297 297 294 293 292 291 290 291
310 309 309 316 313 313 300 292 295 300 300 300 293 296 292 295 294 295 294 297 296 296 296 294 287 295 295 295 297 293 297 287 287 278 278 284 286 288 294 294 291 289 289 289 290
306 297 306 312 315 305 290 292 295 300 301 297 295 294 294 293 294 293 293 297 298 297 296 294 291 290 294 292 290 291 288 289 288 286 280 278 284 293 292 292 289 287 288 288 288
303 293 310 314 298 298 293 295 296 297 300 298 298 296 294 294 292 292 292 294 300 298 293 296 291 285 288 294 296 294 290 290 283 282 285 283 283 296 291 289 288 286 286 287 287
297 298 309 309 290 293 296 295 297 295 296 296 295 297 296 292 289 292 293 297 298 295 293 294 288 281 283 288 293 290 292 292 291 287 283 280 283 292 288 287 287 287 287 286 284
297 289 298 300 301 294 292 292 292 298 296 296 294 295 293 291 293 289 290 294 297 296 295 295 288 284 280 283 288 285 287 289 287 281 282 283 284 289 290 289 289 288 286 286 285
295 290 294 288 292 294 293 291 289 289 294 294 291 291 290 286 287 287 290 290 293 293 292 291 283 285 285 286 286 285 284 285 283 285 280 283 283 287 289 290 287 286 284 284 283
289 289 292 292 293 292 291 289 288 289 289 288 288 290 290 287 287 284 286 286 286 288 288 289 281 283 279 283 283 281 283 284 284 285 284 284 282 289 285 284 283 282 282 282 284
293 293 291 288 289 288 289 289 288 291 289 289 289 287 285 287 289 289 289 289 288 285 283 283 281 278 274 280 279 275 279 281 283 285 283 279 282 281 282 281 282 282 281 281 282
Wind_Speed
6 6 7 7 7 7 8 8 8 9 9 10 11 11 11 11 11 5 7 1 3 13 6 8 6 4 4 3 3 3 6 7 8 6 3 6 6 3 6 11 14 8 12 14 3
5 5 6 6 6 6 7 7 8 9 9 10 11 11 11 12 6 10 3 6 12 12 11 11 8 7 5 3 4 6 8 9 5 9 9 11 10 11 10 14 17 14 15 11 11
4 5 5 6 7 7 7 8 8 9 9 10 10 12 11 9 7 3 3 7 12 10 6 7 4 7 8 4 5 5 9 12 11 12 12 12 14 15 13 17 15 15 13 15 14
4 5 6 7 8 8 8 9 10 10 10 9 9 10 11 5 6 3 3 8 10 9 8 7 6 5 6 9 7 10 14 14 15 9 6 15 17 14 14 21 20 21 20 18 15
5 6 6 7 9 10 10 12 12 12 11 10 8 9 6 6 7 5 7 8 12 9 10 9 9 9 10 6 7 14 13 14 13 13 13 16 21 19 21 22 23 20 17 17 16
5 6 7 8 9 11 12 14 14 13 12 10 7 7 6 10 4 6 7 9 8 11 10 10 4 7 11 11 11 10 11 16 17 16 15 17 20 16 21 15 16 15 18 17 16
5 5 8 9 11 12 13 15 15 14 9 6 7 5 6 10 3 5 6 4 4 8 9 9 5 7 4 9 3 8 13 16 20 18 11 5 15 13 16 11 12 17 18 19 20
4 5 6 8 11 13 14 15 11 9 6 3 7 5 7 2 4 4 4 3 3 2 5 2 5 8 6 2 6 9 12 11 8 2 4 6 15 15 7 12 22 23 22 19 20
5 5 6 8 10 13 14 10 1 5 5 8 6 5 4 2 2 2 3 3 6 3 3 3 5 7 5 9 11 13 13 16 13 8 4 11 12 16 22 20 24 24 19 16 18
6 5 6 8 10 13 13 4 4 3 5 4 2 5 5 1 3 3 1 7 3 8 5 5 6 8 9 11 13 16 18 17 18 18 13 15 22 18 20 21 24 22 17 13 10
7 6 6 7 9 12 11 5 5 6 6 6 5 8 5 4 3 2 2 6 6 8 7 8 9 10 16 16 19 20 20 21 20 19 21 18 17 19 19 23 19 15 10 7 11
7 6 7 6 8 12 6 4 4 3 9 10 13 9 2 1 3 6 6 8 7 10 7 6 12 16 16 7 14 16 19 20 19 13 1 14 19 21 19 20 14 10 8 13 11
7 6 5 5 8 4 3 3 1 2 7 6 2 4 1 6 7 6 10 4 8 11 13 17 14 4 10 14 16 17 17 19 19 17 13 13 15 14 10 16 9 4 15 15 15
7 6 5 4 3 1 2 4 2 2 7 5 5 3 3 2 4 3 2 4 6 9 13 12 9 8 11 15 14 16 13 9 11 8 11 7 12 12 13 8 15 13 13 14 14
6 5 4 3 4 3 5 4 2 4 9 3 3 2 2 2 2 3 1 3 10 5 4 1 5 3 8 8 4 8 3 7 8 11 14 11 15 9 16 11 7 12 10 12 12
3 6 6 4 3 4 6 4 3 6 9 2 2 1 2 3 2 2 1 3 2 5 9 17 3 3 9 1 7 3 7 12 11 8 11 7 8 4 4 3 8 9 10 10 9
2 6 5 3 2 7 5 3 5 7 2 4 3 2 3 1 2 3 4 6 5 6 7 4 9 4 3 7 5 5 9 8 9 11 19 11 8 11 13 3 7 10 8 8 9
3 7 1 1 3 3 3 2 10 2 7 3 2 2 4 4 2 2 4 9 8 6 10 14 17 5 9 5 8 12 10 8 14 16 16 14 12 10 6 10 10 11 10 9 10
4 2 1 3 4 2 3 5 5 9 7 7 6 8 15 5 4 4 8 9 5 5 8 11 12 7 3 2 3 3 6 7 6 8 9 14 21 24 14 12 10 10 9 8 8
2 0 2 2 5 3 5 6 11 8 1 4 12 9 10 8 7 6 5 4 0 1 1 3 13 4 4 1 8 8 6 6 5 5 15 17 23 17 15 10 9 7 7 7 9
3 2 2 4 1 2 6 8 9 8 2 5 10 14 12 10 8 6 6 5 8 3 1 3 4 17 9 9 14 9 8 11 12 10 13 17 13 8 10 7 8 6 5 7 8
5 4 5 7 7 6 12 6 4 8 4 8 7 13 16 14 13 15 16 13 4 6 8 9 5 10 22 19 17 13 18 18 8 6 10 13 14 14 7 3 4 4 2 3 4
4 3 2 2 9 12 9 10 12 7 8 7 8 9 8 6 6 11 11 2 5 2 3 4 3 6 10 13 5 5 9 10 13 5 17 16 12 8 5 2 2 5 5 4 1
5 5 4 3 8 11 17 17 15 8 14 14 9 9 10 12 11 8 8 1 4 2 3 0 7 14 13 17 18 14 13 7 6 6 9 11 21 23 14 11 6 9 6 7 4
3 4 4 8 11 15 12 4 15 16 8 5 8 16 15 13 13 16 13 10 4 4 2 5 11 15 18 21 22 21 21 25 26 25 25 25 23 22 21 17 12 8 3 4 4
3 3 2 2 11 18 16 13 15 11 8 10 13 9 10 11 9 4 9 10 13 9 12 9 12 12 18 20 20 22 25 26 23 24 26 25 27 22 9 4 2 2 4 7 7
1 1 3 5 7 9 14 17 11 15 4 4 6 6 7 8 4 2 4 6 9 7 7 8 6 7 19 15 18 18 22 23 25 24 25 24 12 8 5 3 4 6 7 8 10
Wind_Direction
50 44 39 33 25 21 13 4 2 356 350 343 339 340 340 338 302 230 256 148 145 155 198 154 187 182 214 214 246 278 255 264 275 281 319 133 285 152 294 274 277 238 275 301 78
23 19 15 11 4 358 354 348 343 340 337 334 331 330 333 337 282 269 131 139 140 166 170 183 189 188 214 228 213 239 252 282 295 295 287 308 293 284 282 272 276 275 254 250 249
350 349 352 346 343 340 337 330 327 325 324 322 323 321 323 313 285 69 93 147 163 189 217 221 244 209 248 259 214 216 255 282 291 284 300 293 287 280 262 274 274 294 295 303 291
321 327 332 333 329 330 327 321 316 312 311 308 309 310 318 255 304 58 61 143 163 191 176 180 198 213 246 229 232 257 248 268 285 301 284 277 288 280 264 272 286 286 292 292 279
310 317 325 327 327 328 325 320 315 310 307 301 298 306 279 230 256 111 126 139 166 192 200 201 221 244 256 266 278 246 268 278 282 276 267 283 275 276 277 281 280 284 286 277 272
303 315 323 325 323 326 325 320 317 309 303 290 276 296 244 252 72 127 139 157 191 205 216 219 234 266 288 282 256 330 298 283 277 274 273 266 276 288 277 277 290 289 289 285 272
307 324 330 330 326 324 321 320 317 311 305 288 220 234 244 258 58 121 147 177 209 223 225 228 265 230 332 260 297 286 295 296 280 269 239 269 273 238 273 294 280 280 285 291 295
296 314 324 324 323 320 321 319 320 321 316 206 179 218 263 41 100 157 168 128 175 202 264 282 225 257 250 353 250 267 272 278 290 90 145 209 278 300 347 305 288 286 285 290 293
279 295 309 319 318 316 324 322 20 38 94 136 183 244 265 142 175 89 235 208 141 145 87 145 206 239 197 241 269 240 268 281 301 315 130 209 282 300 299 292 282 284 290 298 299
260 274 298 316 319 318 325 262 194 208 199 227 257 229 166 83 111 101 86 164 148 147 138 185 213 232 229 241 254 284 293 291 296 299 224 272 288 288 289 283 279 287 295 295 311
253 264 281 302 318 324 324 238 229 199 211 281 306 284 260 94 168 138 159 164 143 193 214 195 219 220 247 240 254 276 286 284 283 292 297 296 296 296 286 289 282 286 304 322 51
245 258 272 295 318 318 285 18 46 359 297 263 261 271 247 325 244 164 180 193 202 219 161 187 235 251 267 302 287 281 281 281 288 288 296 284 299 289 285 270 293 315 336 69 54
216 229 258 288 307 281 13 60 156 234 256 254 220 263 268 214 249 196 190 202 217 228 213 246 267 328 268 251 261 268 272 280 285 310 283 292 281 299 273 268 290 31 94 71 53
199 205 230 274 282 64 125 123 172 290 270 184 169 131 165 251 219 26 283 268 217 262 250 260 275 249 246 253 259 272 275 290 283 282 295 24 298 311 284 252 107 77 62 59 55
201 194 235 238 356 257 81 122 148 236 283 60 125 63 101 261 40 84 49 212 256 231 234 12 157 189 226 238 220 266 337 277 271 270 285 256 269 271 281 260 134 84 64 59 58
147 170 175 215 228 88 126 139 241 230 243 96 72 81 190 172 108 113 242 252 329 252 236 263 95 233 249 273 224 357 282 262 256 264 260 281 255 300 35 82 116 94 72 64 59
152 176 194 318 118 141 147 228 237 230 110 103 38 334 315 71 179 212 178 202 272 291 264 285 249 183 267 265 208 225 260 293 273 253 265 289 277 258 303 287 144 130 105 79 66
103 147 150 27 126 159 131 213 230 320 258 125 111 319 301 12 125 196 258 262 216 252 288 289 294 191 153 249 306 292 271 270 287 281 292 314 276 267 64 105 99 102 98 80 56
157 103 100 174 163 239 175 212 212 213 212 234 246 277 273 168 243 300 269 297 324 301 271 308 271 328 222 263 286 62 242 349 326 296 282 267 271 277 198 128 119 118 106 82 67
95 57 209 117 175 233 214 237 229 246 313 253 234 222 234 205 249 253 279 80 74 355 37 333 298 268 80 256 238 239 315 296 212 260 268 271 285 280 280 165 140 107 77 54 46
101 141 177 140 179 216 224 232 270 232 238 239 256 263 259 261 224 199 240 261 276 241 347 9 237 276 298 256 267 258 251 229 263 259 270 272 264 346 1 121 140 112 73 48 36
170 211 138 165 182 210 230 228 237 210 200 251 271 262 266 271 268 254 248 251 169 354 284 292 271 261 277 289 296 281 266 269 257 233 237 264 261 322 26 64 94 115 89 23 37
195 180 126 208 211 224 230 239 239 214 213 200 226 230 224 241 247 252 257 4 19 343 304 47 214 287 292 286 174 244 289 284 284 297 257 274 284 54 82 317 293 280 276 229 243
163 176 164 230 244 241 226 233 226 220 237 239 244 246 244 243 242 260 249 155 22 319 65 10 258 248 257 278 306 290 288 281 254 265 287 267 289 289 257 238 219 234 209 256 225
209 199 184 194 218 223 238 245 231 220 224 229 235 239 240 248 247 247 261 268 247 171 228 250 256 265 264 270 279 285 282 275 271 272 270 283 288 290 296 291 310 342 3 279 254
212 188 222 237 218 211 211 226 232 211 181 214 233 197 192 227 216 262 304 282 268 268 246 260 272 286 278 274 273 274 269 267 274 276 275 278 276 281 22 44 246 240 274 288 263
127 246 272 157 188 205 214 224 229 228 176 268 253 218 226 262 343 18 278 278 273 271 268 270 263 262 265 280 288 269 257 266 265 264 268 272 307 356 339 294 303 296 287 308 290